| time (UTC) | temp F | wind direction | speed knots | gust knots | rain 1hr in | rain 24hr in | rain mn in | humidity % | barometer mb |
| 20260503185446 | 80 | 267 | 0.9 | 0.9 | 0.00 | 0.00 | 0.00 | 48 | 1011.7 |
| 20260503184946 | 79 | 262 | 0.9 | 0.9 | 0.00 | 0.00 | 0.00 | 51 | 1011.9 |
| 20260503184443 | 79 | 122 | 0.9 | 0.9 | 0.00 | 0.00 | 0.00 | 50 | 1011.8 |
| 20260503183939 | 79 | 282 | 0.0 | 0.0 | 0.00 | 0.00 | 0.00 | 50 | 1011.9 |
| 20260503183436 | 78 | 184 | 0.9 | 0.9 | 0.00 | 0.00 | 0.00 | 51 | 1012.1 |
| 20260503182933 | 78 | 311 | 0.0 | 0.9 | 0.00 | 0.00 | 0.00 | 53 | 1012.2 |
| 20260503182432 | 77 | 289 | 0.9 | 0.9 | 0.00 | 0.00 | 0.00 | 51 | 1012.3 |
| 20260503181929 | 77 | 285 | 0.9 | 1.7 | 0.00 | 0.00 | 0.00 | 53 | 1012.1 |
| 20260503181426 | 77 | 164 | 0.9 | 1.7 | 0.00 | 0.00 | 0.00 | 53 | 1012.3 |
| 20260503180921 | 77 | 174 | 0.9 | 1.7 | 0.00 | 0.00 | 0.00 | 53 | 1012.3 |
| 20260503180420 | 76 | 307 | 0.9 | 0.9 | 0.00 | 0.00 | 0.00 | 53 | 1012.4 |
| 20260503175916 | 76 | 315 | 1.7 | 1.7 | 0.00 | 0.00 | 0.00 | 56 | 1012.5 |
| 20260503175415 | 75 | 277 | 0.0 | 0.9 | 0.00 | 0.00 | 0.00 | 58 | 1012.2 |
| 20260503174910 | 75 | 86 | 1.7 | 2.6 | 0.00 | 0.00 | 0.00 | 57 | 1012.4 |
| 20260503174408 | 75 | 141 | 1.7 | 1.7 | 0.00 | 0.00 | 0.00 | 57 | 1012.5 |
| 20260503173903 | 74 | 276 | 0.9 | 0.9 | 0.00 | 0.00 | 0.00 | 57 | 1012.4 |
| 20260503173359 | 73 | 296 | 0.9 | 0.9 | 0.00 | 0.00 | 0.00 | 60 | 1012.8 |
| 20260503172856 | 73 | 177 | 0.9 | 1.7 | 0.00 | 0.00 | 0.00 | 59 | 1012.4 |
| 20260503172354 | 73 | 308 | 0.9 | 0.9 | 0.00 | 0.00 | 0.00 | 61 | 1012.9 |
| 20260503171849 | 74 | 301 | 1.7 | 1.7 | 0.00 | 0.00 | 0.00 | 60 | 1012.8 |
| 20260503171346 | 73 | 298 | 0.0 | 0.0 | 0.00 | 0.00 | 0.00 | 59 | 1012.8 |
| 20260503170844 | 73 | 291 | 0.9 | 0.9 | 0.00 | 0.00 | 0.00 | 62 | 1012.7 |
| 20260503170340 | 72 | 214 | 0.0 | 0.9 | 0.00 | 0.00 | 0.00 | 62 | 1012.8 |
| 20260503150732 | 58 | 297 | 0.9 | 0.9 | 0.00 | 0.00 | 0.00 | 99 | 1013.3 |
| 20260503150229 | 57 | 303 | 0.0 | 0.0 | 0.00 | 0.00 | 0.00 | 99 | 1013.3 |
| 20260503140153 | 52 | 299 | 0.0 | 0.0 | 0.00 | 0.00 | 0.00 | 99 | 1013.0 |
| 20260503131117 | 50 | 299 | 0.0 | 0.0 | 0.00 | 0.00 | 0.00 | 99 | 1012.9 |
| 20260503130614 | 50 | 299 | 0.0 | 0.0 | 0.00 | 0.00 | 0.00 | 99 | 1012.8 |
| 20260503130112 | 50 | 299 | 0.0 | 0.0 | 0.00 | 0.00 | 0.00 | 99 | 1012.6 |
| 20260503110504 | 51 | 299 | 0.0 | 0.0 | 0.00 | 0.00 | 0.00 | 99 | 1013.1 |
| 20260503090350 | 53 | 299 | 0.0 | 0.0 | 0.00 | 0.00 | 0.00 | 99 | 1013.5 |
| 20260503081317 | 54 | 298 | 0.0 | 0.0 | 0.00 | 0.00 | 0.00 | 99 | 1013.5 |
| 20260503080814 | 54 | 299 | 0.0 | 0.0 | 0.00 | 0.00 | 0.00 | 99 | 1013.4 |
| 20260503080311 | 54 | 299 | 0.0 | 0.0 | 0.00 | 0.00 | 0.00 | 99 | 1013.4 |
| 20260503072748 | 55 | 299 | 0.0 | 0.0 | 0.00 | 0.00 | 0.00 | 99 | 1013.5 |
| 20260503072245 | 55 | 299 | 0.0 | 0.0 | 0.00 | 0.00 | 0.00 | 99 | 1013.6 |
| 20260503071741 | 55 | 299 | 0.0 | 0.0 | 0.00 | 0.00 | 0.00 | 99 | 1013.7 |
| 20260503071238 | 55 | 299 | 0.0 | 0.0 | 0.00 | 0.00 | 0.00 | 98 | 1013.5 |
| 20260503070734 | 55 | 299 | 0.0 | 0.0 | 0.00 | 0.00 | 0.00 | 98 | 1013.6 |
| 20260503070232 | 55 | 299 | 0.0 | 0.0 | 0.00 | 0.00 | 0.00 | 97 | 1013.6 |
| 20260503060157 | 58 | 299 | 0.0 | 0.0 | 0.00 | 0.00 | 0.00 | 92 | 1013.5 |
| 20260503054644 | 59 | 299 | 0.0 | 0.0 | 0.00 | 0.00 | 0.00 | 91 | 1013.7 |
| 20260503054141 | 59 | 299 | 0.0 | 0.0 | 0.00 | 0.00 | 0.00 | 90 | 1013.4 |
| 20260503053639 | 59 | 299 | 0.0 | 0.0 | 0.00 | 0.00 | 0.00 | 90 | 1013.4 |
| 20260503053138 | 59 | 299 | 0.0 | 0.0 | 0.00 | 0.00 | 0.00 | 89 | 1013.4 |
| 20260503052633 | 60 | 299 | 0.0 | 0.0 | 0.00 | 0.00 | 0.00 | 89 | 1013.4 |
| 20260503052130 | 60 | 303 | 0.9 | 0.9 | 0.00 | 0.00 | 0.00 | 88 | 1013.3 |
| 20260503051625 | 60 | 303 | 0.0 | 0.0 | 0.00 | 0.00 | 0.00 | 87 | 1013.5 |
| 20260503051123 | 61 | 303 | 0.0 | 0.0 | 0.00 | 0.00 | 0.00 | 86 | 1013.4 |
| 20260503050620 | 61 | 303 | 0.0 | 0.0 | 0.00 | 0.00 | 0.00 | 86 | 1013.5 |
| 20260503050116 | 61 | 303 | 0.0 | 0.0 | 0.00 | 0.00 | 0.00 | 85 | 1013.2 |
| 20260503045614 | 62 | 303 | 0.0 | 0.9 | 0.00 | 0.00 | 0.00 | 84 | 1013.7 |
| 20260503045111 | 62 | 299 | 0.9 | 0.9 | 0.00 | 0.00 | 0.00 | 83 | 1013.4 |
| 20260503044607 | 62 | 308 | 0.9 | 0.9 | 0.00 | 0.00 | 0.00 | 83 | 1013.7 |
| 20260503044105 | 62 | 287 | 0.9 | 0.9 | 0.00 | 0.00 | 0.00 | 83 | 1013.7 |
| 20260503043601 | 61 | 204 | 0.9 | 1.7 | 0.00 | 0.00 | 0.00 | 84 | 1013.9 |
| 20260503043058 | 61 | 293 | 0.0 | 0.9 | 0.00 | 0.00 | 0.00 | 86 | 1013.7 |
| 20260503042555 | 60 | 293 | 0.0 | 0.9 | 0.00 | 0.00 | 0.00 | 88 | 1013.5 |
| 20260503042051 | 60 | 293 | 0.0 | 0.0 | 0.00 | 0.00 | 0.00 | 87 | 1013.6 |
| 20260503041548 | 60 | 293 | 0.0 | 0.0 | 0.00 | 0.00 | 0.00 | 87 | 1013.4 |
| 20260503041046 | 60 | 293 | 0.0 | 0.0 | 0.00 | 0.00 | 0.00 | 87 | 1013.3 |
| 20260503040543 | 61 | 293 | 0.0 | 0.0 | 0.00 | 0.00 | 0.00 | 87 | 1013.6 |
| 20260503040040 | 61 | 293 | 0.0 | 0.0 | 0.00 | 0.00 | 0.00 | 86 | 1013.3 |
| 20260503035536 | 61 | 293 | 0.0 | 0.0 | 0.00 | 0.00 | 0.00 | 85 | 1013.6 |
| 20260503035034 | 61 | 293 | 0.0 | 0.0 | 0.00 | 0.00 | 0.00 | 84 | 1013.5 |
| 20260503034531 | 62 | 293 | 0.0 | 0.0 | 0.00 | 0.00 | 0.00 | 83 | 1013.6 |
| 20260503034028 | 62 | 293 | 0.0 | 0.0 | 0.00 | 0.00 | 0.00 | 83 | 1013.5 |
| 20260503033526 | 63 | 293 | 0.0 | 0.0 | 0.00 | 0.00 | 0.00 | 82 | 1013.4 |
| 20260503033023 | 63 | 293 | 0.0 | 0.0 | 0.00 | 0.00 | 0.00 | 81 | 1013.4 |
| 20260503032522 | 63 | 293 | 0.0 | 0.0 | 0.00 | 0.00 | 0.00 | 81 | 1013.4 |
| 20260503032019 | 63 | 293 | 0.0 | 0.0 | 0.00 | 0.00 | 0.00 | 79 | 1013.4 |
| 20260503031517 | 64 | 293 | 0.0 | 0.0 | 0.00 | 0.00 | 0.00 | 80 | 1013.2 |
| 20260503031014 | 64 | 293 | 0.0 | 0.0 | 0.00 | 0.00 | 0.00 | 78 | 1013.4 |
| 20260503030510 | 64 | 293 | 0.0 | 0.0 | 0.00 | 0.00 | 0.00 | 78 | 1013.0 |
| 20260503030007 | 64 | 293 | 0.0 | 0.0 | 0.00 | 0.00 | 0.00 | 77 | 1013.0 |
| 20260503025503 | 64 | 293 | 0.0 | 0.0 | 0.00 | 0.00 | 0.00 | 78 | 1013.3 |
| 20260503025001 | 64 | 293 | 0.0 | 0.0 | 0.00 | 0.00 | 0.00 | 77 | 1013.4 |
| 20260503024457 | 65 | 293 | 0.0 | 0.0 | 0.00 | 0.00 | 0.00 | 77 | 1013.2 |
| 20260503023955 | 65 | 294 | 0.0 | 0.0 | 0.00 | 0.00 | 0.00 | 76 | 1013.3 |
| 20260503023451 | 65 | 294 | 0.0 | 0.0 | 0.00 | 0.00 | 0.00 | 76 | 1013.4 |
| 20260503022948 | 65 | 299 | 0.0 | 0.0 | 0.00 | 0.00 | 0.00 | 75 | 1013.4 |
| 20260503022444 | 66 | 266 | 1.7 | 1.7 | 0.00 | 0.00 | 0.00 | 74 | 1013.6 |
| 20260503021940 | 66 | 291 | 0.0 | 0.9 | 0.00 | 0.00 | 0.00 | 74 | 1013.6 |
| 20260503021436 | 67 | 263 | 0.0 | 0.9 | 0.00 | 0.00 | 0.00 | 73 | 1013.5 |
| 20260503020934 | 67 | 268 | 0.9 | 0.9 | 0.00 | 0.00 | 0.00 | 72 | 1013.7 |
| 20260503020431 | 68 | 298 | 0.0 | 0.0 | 0.00 | 0.00 | 0.00 | 70 | 1013.4 |
| 20260503015927 | 69 | 285 | 0.0 | 0.9 | 0.00 | 0.00 | 0.00 | 69 | 1013.4 |
| 20260503015424 | 69 | 289 | 0.0 | 0.0 | 0.00 | 0.00 | 0.00 | 69 | 1012.8 |
| 20260503014920 | 70 | 290 | 0.0 | 0.0 | 0.00 | 0.00 | 0.00 | 69 | 1012.8 |
| 20260503014418 | 70 | 290 | 0.0 | 0.0 | 0.00 | 0.00 | 0.00 | 67 | 1012.5 |
| 20260503013916 | 70 | 290 | 0.0 | 0.0 | 0.00 | 0.00 | 0.00 | 67 | 1012.6 |
| 20260503013412 | 71 | 290 | 0.0 | 0.0 | 0.00 | 0.00 | 0.00 | 66 | 1012.5 |
| 20260503012909 | 71 | 290 | 0.0 | 0.0 | 0.00 | 0.00 | 0.00 | 65 | 1012.4 |
| 20260503012408 | 71 | 290 | 0.0 | 0.0 | 0.00 | 0.00 | 0.00 | 65 | 1012.5 |
| 20260503011903 | 72 | 291 | 0.0 | 0.0 | 0.00 | 0.00 | 0.00 | 64 | 1012.5 |
| 20260503011400 | 72 | 293 | 0.9 | 0.9 | 0.00 | 0.00 | 0.00 | 63 | 1012.3 |
| 20260503010857 | 72 | 299 | 0.9 | 0.9 | 0.00 | 0.00 | 0.00 | 60 | 1012.5 |
| 20260503010354 | 72 | 305 | 0.9 | 0.9 | 0.00 | 0.00 | 0.00 | 60 | 1012.2 |
| 20260503005851 | 72 | 305 | 1.7 | 1.7 | 0.00 | 0.00 | 0.00 | 60 | 1012.1 |
| 20260503005349 | 72 | 303 | 0.0 | 0.0 | 0.00 | 0.00 | 0.00 | 61 | 1012.2 |
| 20260503004844 | 72 | 303 | 0.0 | 0.9 | 0.00 | 0.00 | 0.00 | 60 | 1012.3 |
| 20260503004342 | 72 | 305 | 0.0 | 0.0 | 0.00 | 0.00 | 0.00 | 60 | 1012.5 |
| 20260503003839 | 73 | 301 | 0.0 | 0.9 | 0.00 | 0.00 | 0.00 | 59 | 1012.3 |
| 20260503003336 | 72 | 307 | 0.0 | 0.0 | 0.00 | 0.00 | 0.00 | 60 | 1012.4 |
| 20260503002833 | 73 | 164 | 1.7 | 2.6 | 0.00 | 0.00 | 0.00 | 59 | 1012.4 |
| 20260503002330 | 73 | 308 | 0.0 | 0.0 | 0.00 | 0.00 | 0.00 | 60 | 1012.4 |
| 20260503001827 | 72 | 326 | 0.0 | 0.0 | 0.00 | 0.00 | 0.00 | 58 | 1012.3 |
| 20260503001323 | 72 | 289 | 0.0 | 0.9 | 0.00 | 0.00 | 0.00 | 62 | 1012.2 |
| 20260503000820 | 71 | 269 | 0.9 | 0.9 | 0.00 | 0.00 | 0.00 | 60 | 1012.5 |
| 20260503000319 | 71 | 285 | 0.9 | 0.9 | 0.00 | 0.00 | 0.00 | 59 | 1012.6 |
| 20260502235815 | 71 | 311 | 0.9 | 1.7 | 0.00 | 0.00 | 0.00 | 60 | 1012.5 |
| 20260502235312 | 71 | 291 | 2.6 | 2.6 | 0.00 | 0.00 | 0.00 | 61 | 1012.6 |
| 20260502234809 | 70 | 324 | 0.0 | 0.0 | 0.00 | 0.00 | 0.00 | 60 | 1012.5 |
| 20260502234306 | 70 | 320 | 0.9 | 0.9 | 0.00 | 0.00 | 0.00 | 62 | 1012.6 |
| 20260502233802 | 69 | 292 | 0.0 | 0.0 | 0.00 | 0.00 | 0.00 | 62 | 1012.7 |
| 20260502233258 | 69 | 297 | 0.9 | 0.9 | 0.00 | 0.00 | 0.00 | 63 | 1012.7 |
| 20260502232755 | 69 | 318 | 0.9 | 1.7 | 0.00 | 0.00 | 0.00 | 62 | 1012.8 |
| 20260502232252 | 69 | 307 | 0.0 | 0.0 | 0.00 | 0.00 | 0.00 | 63 | 1012.9 |
| 20260502231748 | 69 | 293 | 1.7 | 1.7 | 0.00 | 0.00 | 0.00 | 63 | 1013.0 |
| 20260502231246 | 68 | 305 | 0.0 | 0.0 | 0.00 | 0.00 | 0.00 | 63 | 1013.1 |
| 20260502230744 | 68 | 290 | 2.6 | 2.6 | 0.00 | 0.00 | 0.00 | 65 | 1013.0 |
| 20260502230242 | 68 | 302 | 2.6 | 2.6 | 0.00 | 0.00 | 0.00 | 65 | 1013.1 |
| 20260502225739 | 68 | 293 | 0.9 | 1.7 | 0.00 | 0.00 | 0.00 | 65 | 1013.1 |
| 20260502225236 | 68 | 292 | 0.9 | 1.7 | 0.00 | 0.00 | 0.00 | 66 | 1013.4 |
| 20260502224732 | 68 | 297 | 0.0 | 0.0 | 0.00 | 0.00 | 0.00 | 67 | 1013.4 |
| 20260502224229 | 68 | 296 | 1.7 | 2.6 | 0.00 | 0.00 | 0.00 | 67 | 1013.3 |
| 20260502223726 | 68 | 295 | 0.0 | 0.9 | 0.00 | 0.00 | 0.00 | 67 | 1013.5 |
| 20260502223224 | 67 | 296 | 0.9 | 1.7 | 0.00 | 0.00 | 0.00 | 66 | 1013.5 |
| 20260502222721 | 67 | 303 | 1.7 | 1.7 | 0.00 | 0.00 | 0.00 | 66 | 1013.6 |
| 20260502222218 | 66 | 312 | 0.9 | 0.9 | 0.00 | 0.00 | 0.00 | 68 | 1013.8 |
| 20260502221714 | 67 | 308 | 0.9 | 0.9 | 0.00 | 0.00 | 0.00 | 66 | 1014.0 |
| 20260502221211 | 67 | 301 | 0.9 | 0.9 | 0.00 | 0.00 | 0.00 | 66 | 1014.0 |
| 20260502220707 | 67 | 296 | 1.7 | 1.7 | 0.00 | 0.00 | 0.00 | 67 | 1013.9 |
| 20260502220203 | 67 | 299 | 0.9 | 0.9 | 0.00 | 0.00 | 0.00 | 68 | 1014.0 |
| 20260502215700 | 66 | 301 | 0.9 | 0.9 | 0.00 | 0.00 | 0.00 | 67 | 1014.2 |
| 20260502215157 | 66 | 110 | 2.6 | 2.6 | 0.00 | 0.00 | 0.00 | 67 | 1014.1 |
| 20260502214655 | 66 | 301 | 0.0 | 0.0 | 0.00 | 0.00 | 0.00 | 68 | 1014.2 |
| 20260502214152 | 65 | 250 | 0.0 | 0.9 | 0.00 | 0.00 | 0.00 | 71 | 1014.5 |
| 20260502213649 | 65 | 189 | 1.7 | 2.6 | 0.00 | 0.00 | 0.00 | 69 | 1014.4 |
| 20260502213146 | 65 | 138 | 1.7 | 1.7 | 0.00 | 0.00 | 0.00 | 70 | 1014.4 |
| 20260502212645 | 65 | 318 | 0.0 | 0.0 | 0.00 | 0.00 | 0.00 | 68 | 1014.7 |
| 20260502212143 | 65 | 300 | 0.0 | 0.9 | 0.00 | 0.00 | 0.00 | 69 | 1014.8 |
| 20260502211638 | 65 | 332 | 0.0 | 0.0 | 0.00 | 0.00 | 0.00 | 70 | 1014.5 |
| 20260502211135 | 64 | 320 | 0.9 | 0.9 | 0.00 | 0.00 | 0.00 | 70 | 1015.0 |
| 20260502210633 | 64 | 5 | 1.7 | 1.7 | 0.00 | 0.00 | 0.00 | 68 | 1014.7 |
| 20260502210129 | 64 | 288 | 1.7 | 1.7 | 0.00 | 0.00 | 0.00 | 70 | 1015.0 |
| 20260502205626 | 64 | 294 | 0.9 | 0.9 | 0.00 | 0.00 | 0.00 | 74 | 1014.8 |
| 20260502205123 | 64 | 249 | 0.0 | 0.9 | 0.00 | 0.00 | 0.00 | 72 | 1015.1 |
| 20260502204620 | 64 | 347 | 0.9 | 0.9 | 0.00 | 0.00 | 0.00 | 71 | 1015.3 |
| 20260502204117 | 63 | 346 | 0.9 | 0.9 | 0.00 | 0.00 | 0.00 | 71 | 1015.5 |
| 20260502203614 | 63 | 324 | 0.0 | 0.9 | 0.00 | 0.00 | 0.00 | 72 | 1015.5 |
| 20260502203112 | 63 | 310 | 0.9 | 0.9 | 0.00 | 0.00 | 0.00 | 72 | 1015.6 |
| 20260502202607 | 63 | 308 | 0.0 | 0.9 | 0.00 | 0.00 | 0.00 | 74 | 1015.6 |
| 20260502202106 | 62 | 151 | 0.9 | 1.7 | 0.00 | 0.00 | 0.00 | 74 | 1015.6 |
| 20260502201601 | 62 | 301 | 0.9 | 1.7 | 0.00 | 0.00 | 0.00 | 73 | 1015.7 |
| 20260502201058 | 61 | 296 | 2.6 | 2.6 | 0.00 | 0.00 | 0.00 | 74 | 1015.8 |
| 20260502200554 | 61 | 304 | 0.9 | 0.9 | 0.00 | 0.00 | 0.00 | 74 | 1015.7 |
| 20260502200052 | 62 | 292 | 0.0 | 0.0 | 0.00 | 0.00 | 0.00 | 74 | 1015.9 |
| 20260502195550 | 61 | 305 | 0.9 | 0.9 | 0.00 | 0.00 | 0.00 | 77 | 1015.8 |
| 20260502195045 | 60 | 299 | 0.9 | 0.9 | 0.00 | 0.00 | 0.00 | 77 | 1015.8 |
| 20260502194542 | 59 | 297 | 0.9 | 0.9 | 0.00 | 0.00 | 0.00 | 77 | 1015.9 |
| 20260502194038 | 60 | 290 | 1.7 | 1.7 | 0.00 | 0.00 | 0.00 | 76 | 1016.1 |
| 20260502193536 | 60 | 316 | 1.7 | 1.7 | 0.00 | 0.00 | 0.00 | 78 | 1016.1 |
| 20260502193032 | 60 | 301 | 0.9 | 0.9 | 0.00 | 0.00 | 0.00 | 77 | 1015.8 |
| 20260502192528 | 59 | 289 | 1.7 | 1.7 | 0.00 | 0.00 | 0.00 | 77 | 1016.2 |
| 20260502192026 | 59 | 292 | 0.9 | 0.9 | 0.00 | 0.00 | 0.00 | 79 | 1016.0 |
| 20260502191522 | 60 | 296 | 1.7 | 1.7 | 0.00 | 0.00 | 0.00 | 78 | 1016.3 |
| 20260502191020 | 59 | 291 | 1.7 | 1.7 | 0.00 | 0.00 | 0.00 | 78 | 1016.3 |
| 20260502190517 | 60 | 305 | 0.9 | 1.7 | 0.00 | 0.00 | 0.00 | 77 | 1016.7 |
| 20260502190014 | 60 | 322 | 0.0 | 0.9 | 0.00 | 0.00 | 0.00 | 76 | 1016.6 |
| 20260502185509 | 59 | 302 | 0.0 | 0.9 | 0.00 | 0.00 | 0.00 | 78 | 1016.6 |